[Iaude] MPEC P54: 2024 PO [a=1.18,e=0.14,i=21.2,H=26.9]
    mpec at cfa.harvard.edu 
    mpec at cfa.harvard.edu
       
    Sat Aug  3 21:51:01 EDT 2024
    
    
  
M.P.E.C. 2024-P54                                Issued 2024 August 4, 01:49 UT
     The Minor Planet Electronic Circulars contain information on unusual
         minor planets, routine data on comets and natural satellites,
         and occasional editorial announcements.  They are published
    on behalf of Division F of the International Astronomical Union by the
          Minor Planet Center, Smithsonian Astrophysical Observatory,
                          Cambridge, MA 02138, U.S.A.
			  
             Prepared using the Tamkin Foundation Computer Network
                              MPC at CFA.HARVARD.EDU
            URL https://www.minorplanetcenter.net/    ISSN 1523-6714
                                    2024 PO                                     
Observations:
     K24P00O  C2024 08 03.27593521 49 49.151+09 44 41.47               UEP054I41
     K24P00O  C2024 08 03.27628221 49 49.960+09 43 55.86               UEP054I41
     K24P00O* C2024 08 03.27744921 49 52.849+09 41 19.70         17.96RUEP054I41
     K24P00O  C2024 08 03.27779721 49 53.682+09 40 33.00         17.96RUEP054I41
     K24P00O  C2024 08 03.32852221 51 56.320+07 46 34.53         18.21gUEP054I41
     K24P00O  C2024 08 03.32886921 51 57.100+07 45 46.98         18.21gUEP054I41
     K24P00O  C2024 08 03.38205821 54 04.895+05 44 10.62         18.48iUEP054I41
     K24P00O  C2024 08 03.38240521 54 05.689+05 43 24.70         18.48iUEP054I41
     K24P00O  C2024 08 03.50333021 59 34.211+01 04 45.30         17.64GVEP054F51
     K24P00O  C2024 08 03.51622722 00 05.207+00 34 23.65         17.60GVEP054F51
     K24P00O  C2024 08 03.52910822 00 36.271+00 04 02.31         17.53GVEP054F51
     K24P00O  C2024 08 03.54198122 01 07.449-00 26 19.21         17.60GVEP054F51
     K24P00O KC2024 08 03.60409922 04 42.91 -02 56 30.7          17.3 GVEP054900
     K24P00O KC2024 08 03.60748522 04 51.36 -03 04 31.2          17.4 GVEP054900
     K24P00O KC2024 08 03.61087122 04 59.79 -03 12 32.0          17.6 GVEP054900
     K24P00O KC2024 08 03.93633922 20 17.86 -15 48 45.8          17.6 GXEP054595
     K24P00O KC2024 08 03.93951 22 20 21.35 -15 56 24.8          17.1 GXEP054G02
     K24P00O KC2024 08 03.94078 22 20 24.68 -15 59 15.6          16.8 GXEP054G02
     K24P00O KC2024 08 03.94201 22 20 27.91 -16 01 59.8          16.7 GXEP054G02
     K24P00O KC2024 08 03.94813222 20 48.60 -16 15 09.0          17.9 GXEP054595
     K24P00O KB2024 08 03.95220 22 20 58.75 -16 24 13.4                ZEP054106
     K24P00O KC2024 08 03.95404622 21 06.87 -16 28 13.2          16.9 GUEP054L06
     K24P00O KC2024 08 03.95438922 21 07.77 -16 28 59.3          17.6 GUEP054L06
     K24P00O KB2024 08 03.95531 22 21 06.81 -16 31 08.4                ZEP054106
     K24P00O KB2024 08 03.95833 22 21 14.63 -16 37 51.4          16.6 RZEP054106
     K24P00O KB2024 08 03.96135 22 21 22.43 -16 44 33.4          16.9 RZEP054106
     K24P00O KC2024 08 03.96200222 21 24.53 -16 45 54.6          18.1 GVEP054L01
     K24P00O KC2024 08 03.96235822 21 25.44 -16 46 47.9          17.8 GXEP054595
     K24P00O KC2024 08 03.96252 22 21 28.35 -16 46 48.8          17.9 GXEP054K83
     K24P00O KC2024 08 03.96278722 21 26.55 -16 47 39.3          17.8 GVEP054L01
     K24P00O KC2024 08 03.96357222 21 28.59 -16 49 23.4          17.9 GVEP054L01
     K24P00O KC2024 08 03.96435722 21 30.61 -16 51 08.1          18.0 GVEP054L01
     K24P00O KC2024 08 03.96491 22 21 34.51 -16 52 07.0          18.8 GXEP054K83
     K24P00O KC2024 08 03.96514122 21 32.64 -16 52 52.5          17.9 GVEP054L01
     K24P00O KC2024 08 03.96571 22 21 36.68 -16 53 55.4          18.2 GVEP054104
     K24P00O KC2024 08 03.96727 22 21 40.60 -16 57 20.4          18.5 GXEP054K83
     K24P00O KC2024 08 03.96763 22 21 41.64 -16 58 11.2          17.9 GVEP054104
     K24P00O KB2024 08 04.00429322 23 24.43 -18 18 41.1          17.5 GXEP054I93
     K24P00O KB2024 08 04.00727922 23 32.16 -18 25 12.4          17.3 GXEP054I93
     K24P00O KB2024 08 04.01022722 23 39.79 -18 31 38.2          17.8 GXEP054I93
Observer details:
104 San Marcello Pistoiese.  Observers P. Bacci, M. Maestripieri, M. D.
    Grazia.  Measurers P. Bacci, L. Tesi, G. Fagioli.  0.60-m F4 Reflector +
    CCD.
106 Crni Vrh.  Observer H. Mikuz.  0.60-m f/3.3 reflector + CMO.
595 Farra d'Isonzo.  Observer E. Pettarin.  0.61-m f/4.5 reflector + CCD.
900 Moriyama.  Observer Y. Ikari.  0.26-m f/7.0 reflector + CMO.
F51 Pan-STARRS 1, Haleakala.  Observers J. Herman, T. Lowe, P. Minguez, A.
    Schultz, I. Smith.  Measurers K. Chambers, T. de Boer, J. Fairlamb, H.
    Gao, M. Huber, C.-C. Lin, E. Magnier, Y. Ramanjooloo, R. Wainscoat, R.
    Weryk.  1.8-m Ritchey-Chretien + CCD.
G02 KYSUCE Observatory, Kysucke Nove Mesto.  Observer M. Urbanik.  0.40-m
    f/6.8 Corrected Dall-Kirkham + CCD.
I41 Palomar Mountain--ZTF.  Observers G. Helou, T. A. Prince, K.
    Venkataramani, Q.-Z. Ye, Z. T. F. Collaboration, Y. Wagh, V. Swain.
    Measurers D. A. Duev, H.-W. Lin, A. A. Mahabal, F. J. Masci, Q.-Z. Ye.
    1.2-m f/2.4 Schmidt + ZTF Camera.
I93 St Pardon de Conques.  Observer F. Losse.  0.40-m f/3.7 reflector + CMO.
K83 Beppe Forti Astronomical Observatory, Montelupo.  Observers M. Tombelli,
    M. Iozzi, F. Cheli, A. Mazzanti, A. Squilloni.  Measurers M. Tombelli, F.
    Bernardi, A. Squilloni, F. Cheli.  0.40-m f/8 Ritchey-Chretien + CCD.
L01 Visnjan Observatory, Tican.  Observer K. Korlevic.  1.0-m f/2.9 reflector
    + CCD.
L06 Sormano 2 Observatory, Bellagio Via Lattea.  Observer G. Ventre.  Measurer
    P. Sicoli.  0.36m Schmidt Cassegrain + CCD.
Orbital elements:
2024 PO                                                  Earth MOID = 0.0094 AU
Epoch 2024 Oct. 17.0 TT = JDT 2460600.5                 Veres                   
M  76.13903              (2000.0)            P               Q                  
n   0.77278042     Peri.  155.03452     +0.31058108     +0.91138813             
a   1.1760668      Node   131.77696     -0.92155463     +0.35832713             
e   0.1396995      Incl.   21.22812     -0.23297306     -0.20241874             
P   1.28           H   26.99          G   0.15           U   6                  
Residuals in seconds of arc
240803 I41  0.1+  0.3-    240803 900  0.4-  0.3-    240803 K83  0.3-  0.2-
240803 I41  0.4-  0.4+    240803 595  0.3-  0.0     240803 L01  0.6-  0.7+
240803 I41  0.3+  0.2+    240803 G02  0.3+  0.1+    240803 L01  0.5-  1.1+
240803 I41  0.1+  0.1-    240803 G02  0.5+  0.3-    240803 L01  0.6-  0.9+
240803 I41 (0.2+  2.2+)   240803 G02 (0.9+  0.4+)   240803 K83  0.5-  0.2-
240803 I41 (0.7-  1.9+)   240803 595  0.5+  1.0-    240803 L01  0.6-  0.8+
240803 I41 (2.2-  1.2+)   240803 106  0.2+  0.1-    240803 104  0.2-  0.2+
240803 I41 (2.8-  3.2+)   240803 L06  0.4+  0.1-    240803 K83  0.6-  0.4+
240803 F51  0.2-  0.2+    240803 L06  0.5+  0.4-    240803 104  0.2-  0.3-
240803 F51  0.1-  0.1-    240803 106  0.2+  0.3+    240804 I93  0.0   0.0
240803 F51  0.0   0.1-    240803 106  0.1+  0.3+    240804 I93  0.2+  0.0
240803 F51  0.1+  0.0     240803 106  0.2-  0.8+    240804 I93  0.3+  0.1-
240803 900  0.4-  0.1-    240803 L01  0.5-  0.9+
240803 900  0.3-  0.0     240803 595  0.2-  0.5-
Ephemeris:
2024 PO                  a,e,i = 1.18, 0.14, 21                  q = 1.0118
Date    TT    R. A. (2000) Decl.     Delta      r    Elong.  Phase     V
2024 07 05    17 18 55.1 +72 37 04   0.1881  1.0117    83.2    86.2    26.4
...
2024 07 20    17 54 16.9 +71 20 30   0.09614 1.0132    85.5    89.0    25.1
...
2024 07 28    18 56 27.5 +67 40 36   0.04466 1.0177    91.6    85.8    23.3
...
2024 08 03    21 37 04.0 +19 32 45   0.01013 1.0227   141.4    38.2    18.6
2024 08 04    22 22 53.0 -17 54 21   0.0096261.0236   159.5    20.3    18.0
2024 08 05    23 10 36.9 -45 28 42   0.01306 1.0246   140.7    38.8    19.2
...
2024 08 11    02 19 10.0 -72 03 00   0.04973 1.0312   109.5    67.9    22.9
...
2024 08 19    03 25 08.3 -73 34 44   0.1015  1.0417   104.3    70.3    24.6
...
2024 09 03    03 40 58.8 -73 48 05   0.1950  1.0663   101.9    67.8    26.0
M. P. C. Staff               (C) Copyright 2024 MPC           M.P.E.C. 2024-P54
    
    
More information about the Iaude
mailing list